Location: Axtheid
(49.6213°N, 11.8205°E)
Time: 22:34:12
(UTC+00:00)

Envisat - Pass Details

Date: 22 January 2022
Orbit: 764 x 765 km, 98.2° (Epoch: 21 May)

Event Time Altitude Azimuth Distance (km) Brightness Sun altitude
Rises 05:03:56 0° 8° (N) 3,243 6.2 -18.1°
Reaches altitude 10° 05:06:22 10° 1° (N) 2,313 5.4 -17.7°
Maximum altitude 05:11:05 40° 294° (WNW) 1,126 3.4 -16.9°
Drops below altitude 10° 05:15:46 10° 226° (SW) 2,299 5.1 -16.2°
Sets 05:18:11 0° 219° (SW) 3,221 6.0 -15.8°
